Weather History for Mason, MI

Change the Weather History Date:

Wednesday, December 25, 2013

  Actual Average (KLAN) Record (KLAN)
Temperature  
Mean Temperature 20 °F 26 °F  
Max Temperature 24 °F 32 °F 65 °F (1982)
Min Temperature 16 °F 20 °F -17 °F (2000)
Degree Days  
Heating Degree Days 46 39  
Month to date heating degree days 897  
Since 1 July heating degree days 2311  
Cooling Degree Days 0 0  
Month to date cooling degree days 0  
Year to date cooling degree days 625  
Moisture  
Dew Point 18 °F    
Average Humidity 85    
Maximum Humidity 94    
Minimum Humidity 78    
Precipitation  
Precipitation 0.00 in 0.06 in 0.77 in (1982)
Month to date precipitation 1.53  
Year to date precipitation 31.43  
Snow  
Snow 0.00 in 0.50 in 7.00 in (1965)
Month to date snowfall 10.2  
Since 1 July snowfall 14.0  
Snow Depth -    
Sea Level Pressure  
Sea Level Pressure 30.19 in    
Wind  
Wind Speed 9 mph (South)    
Max Wind Speed 14 mph    
Max Gust Speed 24 mph    
Visibility 7 miles    
Events Snow    
T = Trace of Precipitation, MM = Missing Value Source: NWS Daily Summary

Daily Weather History Graph

Daily Weather History Graph

Search for Another Location

Airport:

Trip Planner

Search our weather history database for the weather conditions in past years. The results will help you decide how hot, cold, wet, or windy it might be!

Date:

Astronomy

Dec. 25, 2013 Rise Set
Actual Time 8:06 AM EST 5:09 PM EST
Civil Twilight 7:33 AM EST 5:42 PM EST
Nautical Twilight 6:58 AM EST 6:17 PM EST
Astronomical Twilight 6:24 AM EST 6:51 PM EST
Moon 12:25 AM EST (12/25) 12:19 PM EST (12/25)
Length of Visible Light 10h 08m
Length of Day
9h 03m
Waning Gibbous, 49% of the Moon is Illuminated
Dec 25
Waning Gibbous
Jan 1
New
Jan 7
First Quarter
Jan 15
Full
Jan 24
Last Quarter

Hourly Weather History & Observations

Time (EST) Temp. Windchill Dew Point Humidity Pressure Visibility Wind Dir Wind Speed Gust Speed Precip Events Conditions
5:30 AM 16.7 °F 2.6 °F 12.7 °F 84% 30.31 in 10.0 mi SSE 13.8 mph 17.3 mph N/A   Overcast
5:33 AM 16.7 °F 2.6 °F 12.7 °F 84% 30.31 in 10.0 mi SSE 13.8 mph 17.3 mph N/A   Overcast
5:53 AM 17.2 °F 4.5 °F 12.9 °F 83% 30.30 in 10.0 mi SSE 11.5 mph 24.2 mph N/A   Overcast
6:14 AM 17.6 °F 4.3 °F 12.6 °F 81% 30.29 in 10.0 mi SSE 12.7 mph 19.6 mph N/A   Overcast
6:33 AM 18.0 °F 6.1 °F 12.2 °F 78% 30.29 in 10.0 mi SSE 10.4 mph 24.2 mph N/A   Overcast
6:53 AM 18.1 °F 7.1 °F 12.4 °F 78% 30.31 in 10.0 mi South 9.2 mph - N/A   Overcast
7:14 AM 18.3 °F 6.6 °F 12.4 °F 78% 30.29 in 10.0 mi SSE 10.4 mph - N/A   Overcast
7:34 AM 18.5 °F 8.4 °F 12.6 °F 78% 30.29 in 10.0 mi SSE 8.1 mph - N/A   Overcast
7:53 AM 18.5 °F 6.1 °F 12.9 °F 79% 30.28 in 10.0 mi SSE 11.5 mph 19.6 mph N/A   Overcast
8:14 AM 18.5 °F 6.8 °F 12.9 °F 79% 30.29 in 10.0 mi SSE 10.4 mph 17.3 mph N/A   Overcast
8:33 AM 18.5 °F 6.8 °F 13.3 °F 80% 30.28 in 7.0 mi SSE 10.4 mph - N/A Snow Light Snow
8:54 AM 18.9 °F 6.5 °F 13.8 °F 81% 30.28 in 10.0 mi SSE 11.5 mph 17.3 mph N/A   Overcast
9:14 AM 18.9 °F 7.2 °F 14.4 °F 83% 30.27 in 2.5 mi SSE 10.4 mph - N/A Snow Light Snow
9:33 AM 19.0 °F 6.1 °F 14.7 °F 83% 30.27 in 2.5 mi SSE 12.7 mph 16.1 mph N/A Snow Light Snow
9:54 AM 19.2 °F 6.4 °F 15.4 °F 85% 30.27 in 1.8 mi South 12.7 mph 18.4 mph N/A Snow Light Snow
10:14 AM 19.4 °F 6.6 °F 15.8 °F 86% 30.26 in 3.0 mi SSE 12.7 mph 16.1 mph N/A Snow Light Snow
10:33 AM 19.4 °F 9.5 °F 16.0 °F 87% 30.27 in 1.8 mi South 8.1 mph - N/A Snow Light Snow
10:54 AM 19.6 °F 8.9 °F 16.3 °F 87% 30.26 in 4.0 mi South 9.2 mph - N/A Snow Light Snow
11:14 AM 20.1 °F 9.5 °F 16.5 °F 86% 30.25 in 7.0 mi South 9.2 mph - N/A Snow Light Snow
11:33 AM 20.5 °F 12.8 °F 16.7 °F 85% 30.24 in 5.0 mi South 5.8 mph - N/A Snow Light Snow
11:54 AM 21.0 °F 12.4 °F 16.5 °F 83% 30.23 in 4.0 mi South 6.9 mph - N/A Snow Light Snow
12:14 PM 21.4 °F 13.8 °F 16.5 °F 82% 30.21 in 5.0 mi South 5.8 mph - N/A Snow Light Snow
12:33 PM 21.7 °F 14.3 °F 16.7 °F 81% 30.21 in 7.0 mi South 5.8 mph - N/A Snow Light Snow
12:54 PM 22.1 °F 15.9 °F 17.1 °F 81% 30.20 in 5.0 mi South 4.6 mph - N/A Snow Light Snow
1:14 PM 22.1 °F 14.7 °F 17.2 °F 82% 30.18 in 4.0 mi South 5.8 mph - N/A Snow Light Snow
1:33 PM 22.3 °F 16.1 °F 17.6 °F 82% 30.18 in 4.0 mi South 4.6 mph - N/A Snow Light Snow
1:54 PM 22.6 °F 15.3 °F 18.0 °F 82% 30.18 in 4.0 mi SSW 5.8 mph - N/A Snow Light Snow
2:14 PM 22.8 °F 18.2 °F 18.1 °F 82% 30.16 in 5.0 mi South 3.5 mph - N/A Snow Light Snow
2:33 PM 22.8 °F - 18.1 °F 82% 30.16 in 7.0 mi Calm Calm - N/A Snow Light Snow
2:54 PM 23.0 °F 15.8 °F 18.5 °F 83% 30.16 in 5.0 mi SW 5.8 mph - N/A Snow Light Snow
3:14 PM 23.0 °F 18.4 °F 18.7 °F 84% 30.15 in 7.0 mi SSW 3.5 mph - N/A Snow Light Snow
3:33 PM 23.0 °F 17.0 °F 18.9 °F 84% 30.15 in 7.0 mi SSW 4.6 mph - N/A Snow Light Snow
3:54 PM 23.2 °F 17.2 °F 19.0 °F 84% 30.16 in 7.0 mi SW 4.6 mph - N/A Snow Light Snow
4:14 PM 23.0 °F - 19.2 °F 85% 30.16 in 7.0 mi Calm Calm - N/A Snow Light Snow
4:33 PM 23.0 °F 17.0 °F 19.4 °F 86% 30.16 in 5.0 mi SW 4.6 mph - N/A Snow Light Snow
4:54 PM 23.0 °F - 19.4 °F 86% 30.16 in 4.0 mi Calm Calm - N/A Snow Light Snow
5:14 PM 23.0 °F 18.4 °F 19.6 °F 87% 30.16 in 4.0 mi SSW 3.5 mph - N/A Snow Light Snow
5:33 PM 23.0 °F - 19.8 °F 87% 30.15 in 7.0 mi Calm Calm - N/A Snow Light Snow
5:54 PM 23.0 °F 15.8 °F 19.8 °F 87% 30.15 in 10.0 mi South 5.8 mph - N/A Snow Light Snow
6:13 PM 23.0 °F 15.8 °F 19.8 °F 87% 30.14 in 10.0 mi South 5.8 mph - N/A   Overcast
6:33 PM 23.0 °F 15.8 °F 19.9 °F 88% 30.14 in 10.0 mi South 5.8 mph - N/A Snow Light Snow
6:54 PM 23.0 °F 17.0 °F 19.9 °F 88% 30.14 in 10.0 mi South 4.6 mph - N/A   Overcast
7:13 PM 23.4 °F 16.2 °F 20.1 °F 87% 30.13 in 10.0 mi South 5.8 mph - N/A   Overcast
7:34 PM 23.2 °F 16.0 °F 20.1 °F 88% 30.13 in 10.0 mi South 5.8 mph - N/A   Overcast
7:53 PM 23.4 °F 15.2 °F 20.3 °F 88% 30.13 in 10.0 mi South 6.9 mph - N/A   Overcast
8:13 PM 23.5 °F 16.4 °F 20.3 °F 87% 30.12 in 10.0 mi South 5.8 mph - N/A   Overcast
8:34 PM 23.5 °F 15.4 °F 20.3 °F 87% 30.12 in 10.0 mi South 6.9 mph - N/A   Overcast
8:53 PM 23.5 °F 16.4 °F 20.7 °F 89% 30.11 in 10.0 mi South 5.8 mph - N/A   Overcast
9:13 PM 23.5 °F 19.1 °F 20.8 °F 89% 30.11 in 4.0 mi South 3.5 mph - N/A Snow Light Snow
9:34 PM 23.4 °F 17.4 °F 21.2 °F 91% 30.10 in 2.0 mi South 4.6 mph - N/A Snow Light Snow
9:53 PM 23.5 °F 17.6 °F 21.6 °F 92% 30.09 in 2.5 mi South 4.6 mph - N/A Snow Light Snow
10:13 PM 23.5 °F 17.6 °F 21.7 °F 93% 30.09 in 2.5 mi South 4.6 mph - N/A Snow Light Snow
10:34 PM 23.5 °F 19.1 °F 21.7 °F 93% 30.08 in 2.5 mi South 3.5 mph - N/A Snow Light Snow
10:53 PM 23.5 °F 19.1 °F 21.9 °F 94% 30.08 in 4.0 mi South 3.5 mph - N/A Snow Light Snow
11:13 PM 23.9 °F 19.5 °F 21.9 °F 92% 30.07 in 10.0 mi South 3.5 mph - N/A   Overcast
11:33 PM 23.9 °F 19.5 °F 22.1 °F 93% 30.06 in 5.0 mi South 3.5 mph - N/A Snow Light Snow
11:53 PM 24.1 °F 18.2 °F 22.3 °F 93% 30.05 in 4.0 mi South 4.6 mph - N/A Snow Light Snow